www.pogodaiklimat.ru

Погода и климат >> Архив погоды >> Италия >> Тревизо


ПОГОДА в Тревизо

  • Прогноз погоды в Тревизо
  • Монитор погоды в Тревизо

АРХИВ ПОГОДЫ в Тревизо

Время (UTC), дата Ветер
(напр.,м/с)
 
Видим.   Явления Облачность Т
(С)
Тd
(С)
f
(%)
Тe
(С)
Тes
(С)
Комфортность P
(гПа)
Po
(гПа)
Тmin
(С)
Tmax
(С)
R
(мм)
R24
(мм)
S
(см)
03 15.03 СЗ 1 н/о н/о +4.0 +3.1 94 +2 +2 1008.6 1006.5
06 15.03 н/о н/о +3.3 +2.7 96 1009.9 1007.8 +2.8
09 15.03 10 км ясно +10.1 +4.6 69 1011.5 1009.4
12 15.03 20 км ясно +14.2 +4.4 52 1011.0 1008.9
15 15.03 10 км ясно +15.9 +3.9 45 1010.3 1008.2
18 15.03 Ю 1 10 км ясно +10.8 +4.9 67 +11 +11 1011.4 1009.3 +16.5
21 15.03 10 км ясно +7.5 +4.8 83 1012.7 1010.6
00 16.03 С 1 н/о н/о +6.0 +4.6 91 +5 +5 1013.3 1011.2
03 16.03 С 2 н/о н/о +6.2 +4.7 90 +4 +4 1012.6 1010.5
06 16.03 С 2 н/о н/о +5.4 +3.7 89 +3 +3 1013.5 1011.4 +4.5
09 16.03 В 2 10 км 8/0
[Cc]
+11.6 +6.2 69 +11 +17 1015.1 1013.0
12 16.03 10 км 8/0
[Cc]
+15.7 +6.9 56 1015.1 1013.0
15 16.03 н/о н/о +16.7 +7.4 54 1013.6 1011.5
18 16.03 ЮВ 2 н/о н/о +12.6 +6.7 67 +12 +12 1014.7 1012.6 +17.2
21 16.03 СВ 2 10 км ясно +9.9 +7.8 87 +8 +8 1016.2 1014.0
00 17.03 С 2 н/о н/о +8.2 +7.8 97 +6 +6 1016.1 1013.9
03 17.03 С 1 н/о н/о +7.8 +6.3 90 +7 +7 1015.4 1013.3
06 17.03 С 1 н/о н/о +7.8 +6.5 91 +8 +8 1015.7 1013.5 +6.6
09 17.03 СВ 4 10 км ясно +13.7 +10.0 78 +12 +18 1016.3 1014.1
12 17.03 СВ 3 10 км 6/6 600 м
[Sc]
+16.0 +10.7 71 +16 +19 1014.7 1012.6
15 17.03 В 3 15 км 9/6 600 м
[Cu Sc Cs]
+14.9 +10.6 75 +14 +15 1012.7 1010.6
18 17.03 ЮВ 3 5000 м дымка 9/9 1500 м
[Sc]
+11.8 +10.4 91 +10 +10 1012.0 1009.9 +16.4
21 17.03 В 2 15 км 6/6 1500 м
[Sc]
+11.2 +9.7 90 +10 +10 1011.4 1009.3
00 18.03 СВ 3 н/о н/о +11.5 +9.8 89 +10 +10 1010.2 1008.1
03 18.03 штиль 0 н/о н/о +10.3 +9.5 95 +9 +9 1009.2 1007.1
06 18.03 н/о н/о +10.7 +10.6 99 1010.1 1008.0 +9.6
09 18.03 С 6 8000 м слаб. дождь 10/9 600 м
[Sc]
+7.1 +5.4 89 +3 +3 1013.4 1011.2
12 18.03 СВ 5 25 км 9/8 1200 м
[Sc]
+8.7 +6.7 87 +5 +6 1016.0 1013.8 7
15 18.03 СВ 9 <100 м ясно +9.7 +3.8 67 +5 +6 1016.1 1013.9
18 18.03 СВ 2 25 км ясно +7.3 +3.1 75 +5 +5 1018.5 1016.3 +10.9 7
21 18.03 С 2 20 км ясно +5.4 +2.6 82 +3 +3 1020.5 1018.3
00 19.03 СЗ 2 н/о н/о +5.6 +2.0 78 +3 +3 1020.6 1018.4
03 19.03 СЗ 2 н/о н/о +6.1 +2.5 78 +4 +4 1020.3 1018.1
09 19.03 СВ 5 <100 м ясно +9.9 +0.4 52 +7 +12 1023.5 1021.3
12 19.03 В 5 <100 м ясно +12.6 -0.4 41 +11 +17 1023.4 1021.2
15 19.03 В 4 25 км ясно +12.8 -0.6 40 +11 +14 1023.0 1020.9
18 19.03 В 2 25 км ясно +8.8 -0.8 51 +7 +7 1025.2 1023.0 +13.2
21 19.03 СВ 3 25 км ясно +6.9 +0.3 63 +5 +5 1027.4 1025.2
00 20.03 С 2 н/о н/о +6.2 +0.3 66 +4 +4 1028.6 1026.4
03 20.03 С 2 н/о н/о +4.8 +0.1 72 +2 +2 1028.9 1026.7
06 20.03 С 2 н/о н/о +4.5 -0.4 70 +3 +3 1030.4 1028.2 +3.5
09 20.03 СВ 5 30 км ясно +10.4 -0.4 47 +8 +13 1031.8 1029.6
12 20.03 С 3 25 км ясно +13.1 -1.2 37 +12 +22 1031.0 1028.8
15 20.03 В 5 <100 м ясно +14.0 -2.5 32 +13 +15 1029.7 1027.5
18 20.03 В 3 <100 м ясно +9.7 -2.0 44 +8 +8 1031.0 1028.8 +14.2
21 20.03 СВ 3 <100 м ясно +9.2 -3.2 42 +7 +7 1032.5 1030.3
00 21.03 С 2 н/о н/о +6.7 -2.7 51 +5 +5 1033.1 1030.9
03 21.03 С 2 н/о н/о +5.0 -2.8 57 +3 +3 1032.3 1030.1
06 21.03 С 2 н/о н/о +4.8 -2.0 61 +3 +3 1033.2 1031.0 +2.4
09 21.03 СВ 5 10 км ясно +11.5 -3.3 35 +10 +14 1033.7 1031.5
12 21.03 СВ 5 10 км ясно +14.8 -2.5 30 +14 +20 1032.4 1030.2
15 21.03 В 3 30 км ясно +16.6 -1.5 29 +16 +19 1030.3 1028.1
18 21.03 ЮЗ 1 30 км ясно +12.7 +0.3 43 +13 +13 1030.1 1027.9 +16.8
21 21.03 25 км ясно +8.1 +1.7 64 1031.3 1029.1
00 22.03 штиль 0 н/о н/о +4.8 +0.7 75 +4 +4 1031.4 1029.2

 

Местоположение метеостанции Тревизо (Италия): широта 45.65 долгота 12.18 высота над уровнем моря 23 м.

В архиве по умолчанию представлена погода в Тревизо за последнюю неделю. Архивные данные за месяц целиком и за предыдущие месяцы, начиная с января 2011 года, Вы можете получить, выбрав интересующий диапазон дат из раскрывающегося списка и нажав кнопку "Ввод!".


*Определитесь, кто Вы:
робот инопланетянин человек

Внимание! Время в таблицах - всемирное. Для получения местного времени необходимо прибавить поправку, которая равна 1 ч.

Смотрите также архив погоды в соседних городах и на ближайших метеорологических станциях:

Погода в Тревизо аэропорту (Италия) (7 км)
Погода в Венеции (Италия) (20 км)
Погода в Венеция аэропорту (Италия) (29 км)
Погода в Конкордия-Саджиттарии (Италия) (53 км)
Погода в Авиано (Италия) (53 км)
Погода на Базе ВВС Авиано (Италия) (54 км)
Погода на Базе ВВС Риволто (Италия) (75 км)
Погода на Пассо Ролле (Италия) (79 км)
Погода в Тренто (Италия) (92 км)
Погода в Ферраре (Италия) (101 км)

Пояснения к столбцам:

Ветер - указаны скорость ветра в м/с - средняя за 10 мин, порывы в срок и между сроками (в фигурных скобках) и направление, откуда дует ветер: С - северный, СВ - северо-восточный, В - восточный, ЮВ - юго-восточный, Ю - южный, ЮЗ - юго-западный, З - западный, СЗ - северо-западный.
Видимость - горизонтальная дальность видимости в метрах или километрах. При видимости от 1 до 10 км при отсутствии осадков обычно наблюдается дымка, при ухудшении видимости до 1 км и менее - туман. В сухую погоду видимость может ухудшаться дымом, пылью или мглою.
Явления - указаны атмосферные явления, наблюдавшиеся в срок или в последний час перед сроком; фигурными скобками обозначены явления, наблюдавшиеся между сроками (за 1-3 часа до срока); квадратными скобками обозначены град или гололедные отложения с указанием их диаметра в мм.
Облачность - указаны через наклонную черту общая и нижняя облачность в баллах и высота нижней границы облаков в метрах; квадратными скобками обозначены формы облаков: Ci - перистые, Cs - перисто-слоистые, Cc - перисто-кучевые, Ac - высококучевые, As - высокослоистые, Sc - слоисто-кучевые, Ns - слоисто-дождевые, Cu - кучевые, Cb - кучево-дождевые. Подробнее классификацию облаков см. в Атласе облаков (PDF).
T - Температура воздуха - температура, измеренная на высоте 2 м над землей.
Td - Температура точки росы - температура, при понижении до которой содержащийся в воздухе водяной пар достигнет насыщения.
f - Относительная влажность воздуха - влажноcть воздуха, измеренная на высоте 2 м над землей.
Te - Эффективная температура - температура, которую ощущает одетый по сезону человек в тени. Характеристика душности погоды. При расчете учитывается влияние влажности воздуха и скорости ветра на теплоощущения человека.
Tes - Эффективная температура на солнце - температура, которую ощущает человек, с поправкой на солнечный нагрев. Характеристика знойности погоды. Зависит от высоты солнца над горизонтом, облачности и скорости ветра. Ночью, в пасмурную погоду, а также при ветре 12 м/с и более поправка равна нулю.
P - Атмосферное давление - приведенное к уровню моря атмосферное давление.
Po - Атмосферное давление - измеренное на уровне метеостанции атмосферное давление.
Tmin - Минимальная температура - минимум температуры воздуха на высоте 2 м над землей.
Tmax - Максимальная температура - максимум температуры воздуха на высоте 2 м над землей.
R - Количество осадков - Количество выпавших осадков за период времени, мм. При наведении курсора мыши на число - период времени, за который выпало указанное количество осадков.
R24 - Количество осадков - Количество выпавших осадков за 24 часа, мм.
S - Снежный покров - Высота снежного покрова, см. При наведении курсора мыши на число - состояние снежного покрова и степень покрытия местности в баллах.